GEFSNGP_500_meanwind_240.txt.gz
Wind_Speed
20 20 19 19 19 19 19 19 19 19 18 18 18 17 16 15 15 15 15 15 14 14 14 14 13 13 12 11 11 11 10 10 10 10 10 10 10 10 10 10 10 10 9 10
20 20 20 20 19 20 20 20 20 19 19 19 19 18 17 17 17 16 16 16 16 16 15 16 15 14 14 13 13 12 12 11 11 11 11 11 11 11 11 12 11 11 11 10
21 21 21 22 20 21 20 20 20 20 20 20 19 19 18 18 19 18 18 18 18 18 17 16 16 16 16 15 15 15 14 13 13 13 13 13 13 13 13 13 13 13 13 12
23 23 24 22 21 22 22 21 20 20 20 21 20 20 19 19 20 20 19 19 19 18 17 18 18 18 18 17 17 16 16 15 15 14 15 15 15 14 14 14 13 13 13 14
25 26 26 24 23 23 23 23 22 22 22 21 20 20 19 19 20 20 20 19 19 18 18 19 19 19 19 19 18 18 18 18 17 17 17 16 15 15 15 15 14 14 14 14
27 27 28 25 24 24 25 25 24 23 23 22 21 20 20 20 20 21 21 21 20 19 19 20 20 20 20 20 20 20 20 20 20 19 18 17 17 17 17 16 16 16 16 16
28 29 28 27 25 26 26 26 25 24 24 23 22 21 21 20 20 21 21 21 21 20 20 21 21 21 21 22 21 21 21 21 21 21 20 20 20 19 19 19 18 18 18 17
29 29 28 27 27 27 27 26 26 25 24 24 23 22 21 21 21 21 21 21 21 21 22 22 22 22 22 23 23 22 22 22 22 22 22 22 21 21 21 20 20 19 19 19
28 27 27 26 26 27 27 27 26 26 25 25 24 23 23 22 22 22 22 22 22 22 23 23 24 24 24 24 24 23 23 23 23 23 24 24 23 22 22 22 22 21 21 21
27 26 26 25 25 25 26 26 26 26 26 26 26 25 24 24 24 24 23 23 23 23 23 24 25 25 25 25 25 25 25 25 25 25 25 26 25 24 24 24 23 23 22 22
26 25 24 25 25 24 24 24 24 25 25 26 27 27 27 26 26 25 25 24 24 23 24 25 26 26 26 26 26 26 26 27 27 27 27 27 28 27 27 26 26 25 25 24
26 24 24 24 25 25 25 25 25 26 27 27 27 28 27 27 26 26 26 26 25 25 25 25 26 26 26 26 26 27 28 28 29 29 28 28 28 28 28 28 28 27 27 27
24 24 24 24 24 25 26 26 26 27 28 28 28 28 28 27 27 27 27 27 27 26 26 26 27 27 27 27 27 28 28 28 28 29 29 29 29 28 28 28 28 29 29 29
23 23 24 24 24 25 25 26 27 27 28 28 28 29 29 28 27 27 27 27 27 27 27 27 27 27 27 27 28 28 28 28 28 28 28 29 29 29 29 29 29 30 30 30
24 24 24 25 26 26 26 26 27 27 27 28 29 29 28 27 27 27 27 27 27 28 27 28 28 28 27 28 29 29 29 29 29 29 29 30 30 30 31 31 31 31 31 31
25 25 24 25 25 25 26 26 27 27 28 28 28 28 28 28 27 27 27 27 28 28 28 28 28 28 28 29 29 29 30 30 31 31 31 31 31 31 32 33 33 33 33 33
25 25 24 24 25 25 25 26 26 27 27 27 27 28 28 28 28 27 27 28 28 28 28 28 29 29 29 29 30 30 31 32 32 32 32 32 33 33 34 34 35 35 35 34
25 25 25 24 24 24 24 25 25 26 26 27 26 27 27 27 28 27 28 28 28 28 29 29 30 30 30 30 31 32 32 33 33 34 34 34 34 35 35 35 35 35 36 36
25 25 26 26 25 25 25 24 25 26 27 27 27 27 27 28 28 28 28 29 29 29 30 30 31 32 32 32 32 33 33 33 34 34 35 35 35 36 36 37 37 37 37 37
25 25 26 26 26 26 25 25 25 25 26 26 27 27 27 28 28 28 29 29 29 30 31 32 32 32 32 33 32 33 33 33 34 34 35 35 36 37 38 38 38 38 38 38
26 26 26 26 26 26 26 25 25 25 25 26 26 27 27 27 28 28 28 28 29 30 31 31 31 32 32 32 32 32 32 32 33 34 35 36 36 37 37 38 39 39 38 39
27 27 27 27 26 26 25 25 25 25 25 25 25 26 26 26 27 27 27 28 29 29 30 30 30 30 30 31 31 31 31 31 32 33 34 35 36 36 37 38 38 38 38 38
27 27 27 26 26 25 24 24 24 25 25 25 25 25 26 27 27 27 27 28 28 29 29 29 29 29 30 31 31 31 31 32 32 33 34 35 36 36 37 37 37 38 38 39
27 27 27 26 26 25 25 25 26 26 25 25 25 26 26 27 28 28 28 29 29 30 30 30 31 31 31 32 32 32 33 33 33 34 35 35 36 36 36 36 37 37 38 39
27 27 27 27 27 27 27 27 26 26 27 26 27 27 27 27 28 28 29 30 30 31 31 31 31 31 32 32 33 33 33 34 35 35 36 36 36 36 36 36 36 37 38 39
27 27 27 28 28 29 29 28 28 28 28 28 28 29 29 29 29 29 29 29 30 30 30 31 32 32 33 33 34 34 34 35 35 36 37 37 37 36 36 35 35 37 38 39
27 27 27 27 28 28 29 29 29 29 29 29 29 30 30 30 30 30 30 31 31 31 31 31 32 32 33 34 34 34 35 35 36 37 37 36 36 36 37 37 37 37 38 39

GEFSNGP_500_meanwind_246.txt.gz
Wind_Speed
22 20 20 21 20 21 22 21 20 20 21 21 20 20 19 19 19 18 17 17 17 16 16 16 16 16 15 15 15 14 14 14 14 14 13 13 13 13 13 13 12 12 12 11
22 21 20 21 22 23 23 23 22 22 22 22 21 21 20 19 19 18 18 18 18 17 17 17 18 17 16 15 15 15 15 15 15 15 14 14 14 14 14 14 13 13 13 12
23 23 23 22 21 22 22 23 23 23 23 24 23 23 22 20 20 20 19 19 19 18 18 18 18 17 17 17 16 16 16 16 15 15 14 14 15 15 15 14 14 14 15 15
24 24 25 22 22 23 23 24 24 24 25 25 24 23 23 22 22 21 21 20 20 19 18 18 18 18 17 17 18 17 17 16 16 16 16 15 16 16 15 15 15 15 16 16
25 25 25 24 23 24 24 24 24 24 25 25 25 24 23 23 23 23 22 22 21 20 20 19 19 19 18 18 19 19 18 17 17 17 17 17 17 17 17 17 17 17 17 17
26 26 26 24 24 25 26 26 24 25 25 25 25 25 25 24 24 23 23 23 22 21 21 20 20 20 20 20 20 20 20 19 19 19 19 18 18 19 19 19 19 19 18 18
28 29 29 27 26 27 28 27 26 27 27 27 27 27 26 25 25 25 24 24 23 23 22 21 21 22 21 21 21 21 21 20 20 20 20 20 20 20 20 21 20 20 19 19
29 30 30 28 28 29 29 28 28 28 28 28 28 28 27 26 26 26 25 24 24 24 23 22 22 23 23 22 22 22 22 23 22 21 21 21 21 20 20 21 21 21 21 21
29 29 29 28 29 30 30 29 29 30 29 29 29 29 28 27 26 26 26 25 25 25 24 23 23 24 24 24 24 24 24 24 24 23 22 22 22 22 22 22 22 22 23 23
29 29 30 30 30 30 30 31 30 30 29 29 29 29 28 28 27 27 26 25 25 25 25 25 25 24 25 25 25 25 25 25 24 24 24 23 23 23 23 23 23 23 24 24
28 29 30 30 31 31 30 29 29 29 29 29 29 29 28 28 28 27 27 27 26 26 26 26 26 26 25 25 26 26 26 26 25 25 25 25 25 25 25 25 25 25 25 26
27 28 29 29 28 29 29 28 28 28 28 28 28 28 28 28 28 28 28 28 28 27 27 27 28 27 27 27 26 27 27 27 27 26 26 26 27 27 27 27 27 27 27 28
27 27 28 27 27 28 28 28 28 27 27 26 27 27 28 28 29 29 29 29 29 29 29 28 28 28 28 27 27 28 28 28 28 28 28 28 28 29 29 29 29 30 30 30
26 26 27 27 27 28 27 27 27 27 26 27 27 27 28 28 29 29 29 30 30 30 30 29 29 28 28 28 28 28 28 29 29 29 29 30 30 30 30 30 31 31 32 31
27 27 27 27 27 27 27 27 27 27 27 27 27 28 28 29 29 29 30 30 30 30 30 30 29 29 28 28 29 29 29 30 30 30 31 31 31 31 31 32 32 32 32 33
28 28 28 28 28 28 27 28 28 28 28 27 28 28 28 29 29 30 30 30 30 29 29 29 29 28 28 28 29 29 30 30 31 31 32 33 33 33 33 33 33 33 33 34
28 28 29 29 29 29 29 29 29 29 29 28 27 28 28 28 28 29 29 29 29 29 29 29 29 29 29 29 29 30 30 31 31 32 33 33 34 34 34 34 35 35 35 35
28 28 28 29 29 29 29 29 29 29 29 28 27 27 28 28 28 28 28 29 29 29 29 29 29 29 30 30 30 31 31 31 32 33 33 34 34 34 34 34 35 36 36 36
28 28 28 29 29 29 29 29 29 29 29 28 28 28 28 28 28 28 28 29 29 29 28 28 29 30 30 31 31 32 32 33 33 33 34 35 35 34 35 35 35 36 36 36
28 28 28 28 28 28 28 29 29 28 28 29 29 29 28 28 28 28 29 29 29 29 29 29 29 30 31 32 32 32 33 33 33 34 34 35 35 35 35 35 36 36 36 36
28 28 28 28 28 28 28 28 28 27 28 28 29 29 29 29 29 29 29 29 29 29 29 29 30 30 31 32 32 33 33 33 33 34 35 35 35 35 35 36 36 36 37 37
28 28 28 29 29 28 28 28 28 28 28 29 29 29 30 29 29 29 29 29 29 29 30 31 32 32 32 32 32 33 33 34 34 34 35 35 35 35 36 36 37 37 37 37
28 29 29 29 29 28 29 29 29 29 29 29 30 30 30 30 30 30 30 29 29 30 30 31 32 32 33 33 33 33 33 33 34 34 34 35 35 35 36 36 37 38 38 38
30 30 30 30 30 30 30 29 29 29 29 29 29 29 29 30 30 30 30 31 31 31 31 31 31 32 32 33 33 33 33 33 33 34 34 35 35 35 36 36 37 37 38 38
29 30 30 30 30 30 30 30 30 30 29 29 29 29 30 30 29 29 29 29 30 31 31 31 32 32 32 32 32 32 33 33 33 34 35 35 34 34 35 36 36 37 38 38
28 28 28 29 29 30 30 30 30 30 30 30 29 30 29 29 28 28 28 28 30 31 31 31 31 31 31 32 32 33 33 34 34 35 35 34 34 34 35 36 37 38 38 39
29 29 29 29 29 29 30 30 30 31 31 30 30 30 30 29 29 29 30 30 30 30 31 31 31 31 32 32 33 33 33 34 34 35 35 35 36 36 36 37 38 38 39 40

GEFSNGP_500_meanwind_252.txt.gz
Wind_Speed
22 21 21 22 21 22 22 22 21 20 19 19 19 18 18 17 16 16 15 14 13 13 13 13 13 12 12 12 12 12 12 12 12 12 12 12 12 12 12 11 10 10 10 10
22 22 22 22 21 21 23 23 22 21 20 19 18 18 18 18 18 17 17 16 15 15 14 13 13 13 13 13 13 13 12 12 12 12 13 13 12 13 13 12 12 12 12 11
22 22 22 23 21 22 23 23 21 22 21 20 19 19 19 18 18 18 17 17 17 16 15 15 14 14 14 14 14 14 13 13 13 12 13 13 13 14 14 14 13 13 13 13
24 24 24 22 21 22 22 23 22 21 21 21 21 21 20 19 18 18 19 18 18 17 17 17 17 16 16 16 16 15 15 14 14 14 14 14 14 14 14 15 15 15 14 14
24 25 24 22 22 22 23 23 22 22 21 22 21 21 21 21 19 19 19 19 20 19 19 18 18 18 18 17 17 16 16 15 15 15 15 15 15 15 15 15 16 16 16 16
24 25 24 21 21 22 23 23 22 23 22 22 22 22 22 22 22 21 22 21 20 20 21 21 20 20 19 18 18 17 17 16 16 16 16 16 16 16 16 16 16 17 17 17
25 25 24 22 21 22 22 22 22 22 22 23 23 23 23 23 23 23 23 23 23 22 22 22 22 21 21 20 20 20 20 19 18 18 18 18 17 17 17 18 18 17 17 18
25 25 23 22 22 23 23 23 22 22 23 23 24 24 24 24 24 24 25 25 25 24 24 24 24 23 23 23 23 23 23 22 20 19 19 19 19 19 19 19 19 19 19 19
25 24 23 23 24 25 25 24 23 23 23 24 25 25 25 25 25 25 25 26 26 25 25 24 24 25 25 25 25 25 24 24 23 22 21 21 20 20 20 20 21 20 20 21
25 25 25 24 25 26 26 26 25 25 26 26 26 26 26 26 26 26 26 26 26 27 26 25 25 26 25 26 26 26 25 25 25 24 24 23 23 22 22 22 22 22 22 22
25 25 24 24 25 26 27 27 27 27 27 27 26 25 25 26 26 26 27 27 27 28 27 27 27 26 26 26 26 27 26 27 27 26 26 25 24 24 24 24 24 24 24 24
25 26 26 24 25 25 26 26 26 26 27 27 27 27 26 26 27 27 27 27 27 27 28 28 27 27 27 27 28 28 28 28 27 28 27 27 26 26 26 26 26 26 27 27
26 26 26 25 25 25 25 25 26 26 27 27 27 27 27 26 26 27 26 26 26 27 28 28 27 28 28 28 28 28 27 28 28 28 29 29 28 27 27 27 28 28 28 29
27 27 26 26 26 26 27 26 26 26 26 26 26 26 26 26 26 26 26 26 27 27 27 28 28 28 28 28 29 28 28 29 29 29 29 30 30 30 30 29 29 30 30 30
27 27 27 27 27 27 27 27 26 26 25 25 26 26 26 26 27 27 27 27 26 26 27 28 28 28 28 29 30 30 30 30 31 31 31 31 32 32 32 31 31 31 31 31
27 27 27 27 27 27 27 27 26 25 25 25 26 26 26 26 27 27 27 27 26 26 27 27 27 28 29 30 30 31 31 31 32 32 32 33 33 33 33 33 32 32 32 32
26 26 26 26 26 26 26 25 25 24 24 25 25 26 26 27 27 27 27 27 27 27 27 27 28 28 29 29 30 31 30 31 31 32 32 33 33 34 33 33 32 32 32 33
26 26 26 25 25 26 26 25 24 24 25 25 25 26 26 26 27 27 27 27 28 28 28 28 29 29 29 29 29 30 30 30 31 31 32 33 33 33 33 33 33 32 33 34
26 26 26 26 26 25 26 26 26 25 25 26 26 26 26 26 26 27 27 27 28 28 28 28 29 29 28 28 29 29 29 30 30 31 32 32 32 32 32 32 33 33 34 35
27 27 27 26 26 26 26 26 26 26 26 27 27 27 27 27 27 28 28 28 28 28 28 28 28 29 29 29 29 29 29 29 30 30 31 31 32 32 32 32 33 34 35 35
27 26 26 26 26 26 27 27 27 27 28 27 27 27 27 28 28 28 29 29 29 29 30 30 29 30 30 30 30 30 29 29 30 30 30 31 31 31 32 32 33 35 35 36
26 26 27 27 26 26 26 26 27 28 28 28 28 29 29 29 29 29 29 29 29 30 30 30 31 31 30 30 30 30 30 30 30 30 30 31 31 32 32 33 34 34 35 36
25 25 26 26 26 26 26 26 27 28 28 29 29 29 30 30 30 30 29 29 30 30 30 30 30 30 30 30 30 30 30 30 31 31 31 31 32 32 33 33 34 35 36 36
25 25 26 26 26 26 27 27 28 28 28 28 28 29 30 29 29 30 30 30 30 30 30 30 30 30 31 31 30 30 30 30 30 30 31 32 32 32 33 33 34 35 35 35
25 25 26 26 27 28 28 28 28 28 29 29 29 29 30 30 30 29 30 29 29 30 30 30 30 30 30 30 30 30 30 30 30 30 31 31 32 33 33 33 34 35 35 35
26 26 26 27 27 27 28 28 28 28 29 29 30 30 30 31 31 31 31 30 30 30 30 30 31 31 31 30 30 30 31 31 32 32 32 32 32 33 34 35 36 36 36 36
27 26 26 26 27 27 28 28 28 28 29 29 29 29 30 31 31 32 32 32 31 30 30 31 32 32 32 33 32 32 32 33 33 33 33 33 34 35 35 36 37 36 36 37

GEFSNGP_500_meanwind_258.txt.gz
Wind_Speed
22 22 22 22 23 23 23 24 24 22 21 19 19 20 20 19 19 19 18 18 17 17 16 15 15 14 14 14 14 13 13 13 13 13 13 13 13 13 13 12 12 12 12 11
23 22 23 23 22 23 23 23 23 23 22 20 21 21 21 21 21 20 20 19 18 17 16 16 16 16 16 15 15 15 14 14 14 14 14 15 14 14 14 13 13 13 13 12
23 23 24 23 22 24 24 23 23 23 22 21 22 22 21 21 22 22 22 21 20 19 18 18 17 17 18 17 17 16 16 15 15 15 15 16 15 15 15 14 14 14 13 13
24 24 25 23 22 23 24 23 24 24 23 22 22 22 21 21 22 23 23 22 20 20 20 20 19 18 18 18 18 18 17 17 17 16 16 16 16 15 15 15 15 14 14 14
26 26 25 23 22 23 25 24 24 24 23 23 22 22 22 23 23 23 23 23 23 22 21 21 21 20 20 20 20 20 19 19 18 18 18 17 17 17 16 16 16 16 16 16
27 27 26 24 23 24 25 25 24 24 24 23 22 23 23 23 24 24 24 23 23 23 23 23 22 21 22 21 21 21 21 21 20 20 20 19 18 18 18 17 17 17 18 18
27 27 26 25 25 25 25 25 25 24 24 23 23 23 23 23 23 24 25 24 24 24 24 24 23 23 23 22 23 23 23 23 23 22 22 21 21 20 19 19 19 19 19 20
26 27 25 24 25 25 25 25 25 24 24 24 24 25 24 24 24 25 25 25 25 24 24 25 25 25 25 25 25 24 24 24 25 24 24 24 24 23 22 22 22 21 21 21
26 26 26 25 25 25 25 25 25 25 25 25 25 25 25 24 24 25 25 25 25 25 25 25 25 26 26 26 26 25 24 24 25 26 25 25 25 24 24 24 23 23 23 23
26 26 27 26 26 26 26 25 25 27 27 27 27 27 26 25 25 25 25 25 25 26 26 26 26 27 27 27 27 26 26 25 26 26 26 26 26 25 25 25 25 24 24 24
27 26 26 26 26 26 26 27 27 27 28 28 28 28 27 26 26 26 26 26 26 26 26 27 27 27 27 28 28 28 27 27 27 27 27 27 27 27 27 27 27 26 26 25
27 27 27 26 27 27 27 27 27 27 28 28 28 28 28 27 27 27 27 27 26 26 27 27 27 28 28 28 28 28 28 28 28 28 28 28 28 28 28 28 28 28 27 27
27 28 28 28 28 27 27 27 27 27 27 28 28 28 28 29 29 28 27 27 26 27 27 26 27 27 28 28 28 28 28 28 29 29 29 29 29 29 29 29 29 29 29 29
28 28 28 28 28 27 27 26 26 27 28 28 29 29 29 29 29 29 28 27 27 27 27 27 27 26 27 27 28 28 29 30 30 30 30 31 31 31 32 32 31 31 30 30
30 29 28 27 27 27 27 26 26 26 27 28 29 29 29 28 28 28 28 27 27 27 27 27 26 26 26 27 27 28 29 30 30 31 31 32 32 32 33 33 33 33 32 31
29 29 28 27 27 28 27 27 27 27 27 28 28 28 28 28 28 28 27 28 28 27 27 27 27 27 27 27 28 28 29 30 31 31 32 32 32 33 33 34 34 34 34 33
28 28 28 28 28 28 28 28 28 28 28 28 27 27 27 28 28 28 28 28 28 28 28 27 27 27 28 28 28 29 30 30 31 31 31 32 33 33 34 34 34 34 34 34
27 27 28 28 28 28 28 28 28 29 28 28 27 27 27 28 28 29 29 29 29 29 29 29 29 29 29 29 30 30 31 31 31 31 32 33 33 33 34 35 35 35 35 34
28 28 28 28 28 28 28 28 28 28 28 28 27 27 28 29 29 29 29 29 29 30 29 29 30 30 30 30 31 31 31 31 31 31 32 32 33 33 34 34 35 35 35 35
28 28 27 27 28 28 28 28 28 28 27 28 28 28 28 29 29 30 30 30 30 31 31 30 30 30 31 31 31 31 31 30 31 31 31 32 32 33 33 33 33 34 34 34
28 28 28 28 28 28 28 28 28 28 27 28 28 28 29 29 29 29 30 31 31 31 31 31 31 31 31 31 31 31 31 31 32 32 32 32 32 32 32 32 33 33 34 34
27 27 27 27 27 28 27 27 28 28 28 28 28 29 29 29 29 30 30 31 31 31 32 32 32 32 32 32 32 32 32 32 32 32 32 32 32 32 32 32 33 33 34 34
26 26 26 26 26 26 26 26 27 28 28 28 29 29 29 29 29 30 30 30 31 32 32 32 32 32 32 32 32 33 33 33 33 33 33 32 33 32 32 33 33 33 34 34
24 24 25 25 25 26 26 26 27 27 27 28 28 28 29 29 29 30 30 30 31 31 31 31 31 31 32 32 32 33 33 33 33 33 33 33 33 33 33 33 33 34 35 36
25 25 25 25 25 25 26 27 27 27 27 28 28 28 28 29 30 30 30 31 31 31 31 31 31 31 32 32 33 33 33 33 33 34 34 34 34 34 35 35 35 36 36 36
26 26 26 26 26 26 27 27 28 28 28 28 28 28 28 29 29 30 30 30 30 30 30 30 30 31 32 32 33 33 33 33 33 34 34 34 34 34 35 35 36 36 36 37
26 26 26 26 26 27 27 27 28 28 28 28 28 29 29 29 29 29 30 29 29 29 29 30 30 30 31 31 31 31 31 32 32 33 33 33 33 34 34 34 35 36 36 36

GEFSNGP_500_meanwind_264.txt.gz
Wind_Speed
20 21 22 22 21 22 23 23 23 23 23 22 20 19 19 19 19 19 19 18 18 18 18 18 18 18 18 18 18 17 17 16 16 16 15 14 14 14 14 14 13 13 12 12
21 22 22 22 22 22 23 24 24 24 23 22 22 22 20 20 20 20 20 19 19 19 19 19 19 19 19 19 19 19 18 18 18 17 16 16 15 15 15 14 14 14 14 13
22 23 23 23 22 23 24 24 24 25 24 23 22 23 22 21 21 21 21 20 20 20 20 19 19 20 21 20 20 20 20 19 19 19 18 18 17 16 16 16 16 15 15 15
23 24 25 24 23 23 24 24 25 25 24 24 23 23 23 23 23 23 22 22 22 21 21 21 21 21 21 22 21 22 21 20 20 20 20 19 19 18 18 17 17 16 16 16
23 24 25 25 24 24 25 25 25 25 25 24 23 23 24 24 24 24 24 24 24 23 22 22 22 23 23 23 23 22 22 22 22 22 21 20 20 19 19 19 18 18 18 17
24 24 25 24 25 24 25 26 25 25 25 24 23 24 24 24 24 24 25 25 24 24 24 23 23 23 23 24 23 23 23 23 23 23 22 21 21 21 21 21 20 20 20 19
25 25 25 24 25 24 25 25 25 25 25 25 25 25 25 25 25 25 25 26 25 25 25 24 24 24 24 25 24 23 23 23 23 23 24 23 23 23 23 23 23 22 22 22
25 25 25 25 25 25 25 24 25 25 25 25 24 25 25 25 25 25 25 26 25 25 25 25 25 25 25 25 26 25 24 24 24 25 26 26 25 25 25 24 24 24 24 24
24 25 26 26 25 25 24 24 24 25 25 25 25 25 25 26 25 25 25 25 25 25 25 25 25 25 25 26 27 27 26 26 26 26 25 26 26 26 26 26 26 26 26 25
25 26 27 27 26 25 25 25 25 26 26 26 25 25 25 25 26 25 25 25 25 26 26 25 26 26 26 26 26 27 27 27 28 28 27 26 27 27 27 26 26 26 26 26
26 26 27 26 26 26 26 26 26 26 26 26 26 26 26 26 27 27 27 27 27 26 26 26 26 26 26 26 26 27 27 28 28 28 28 28 28 28 28 27 27 27 27 27
26 26 27 25 25 26 26 26 27 26 26 27 27 27 27 28 28 29 28 28 28 28 27 27 26 26 25 25 26 26 27 27 28 28 28 28 29 28 28 28 28 28 28 28
27 27 27 26 26 26 27 27 27 26 26 27 27 27 27 27 27 28 29 29 29 29 28 28 27 26 26 26 26 26 26 27 27 28 28 28 29 28 28 28 29 29 30 30
27 28 28 28 27 27 27 26 26 26 27 27 27 27 27 27 27 28 27 28 29 29 29 29 28 27 27 27 27 26 26 26 27 27 27 28 28 28 29 29 29 30 30 31
27 28 28 27 27 27 26 26 26 26 27 27 27 27 27 27 27 28 28 28 28 28 29 29 29 29 28 28 28 27 27 27 28 28 27 28 28 29 30 30 31 31 31 31
26 26 27 27 26 26 26 26 26 26 27 27 27 27 28 28 28 28 28 28 29 28 29 29 29 29 29 29 28 28 28 28 28 28 28 28 29 30 30 31 31 31 31 31
26 26 26 26 26 26 26 26 26 27 27 27 27 27 28 28 28 29 29 29 29 30 30 30 30 30 30 30 30 29 29 29 29 29 29 29 30 30 31 31 31 31 31 31
26 26 26 26 26 26 27 27 27 27 28 28 27 27 28 28 28 29 29 29 29 30 30 30 31 31 31 31 30 30 29 29 29 29 29 30 31 31 31 31 31 31 31 32
27 27 27 27 27 28 28 28 28 28 28 28 28 28 28 29 29 29 29 29 29 29 29 30 31 31 31 31 31 30 30 30 30 30 30 31 31 31 31 31 32 32 32 33
26 27 27 27 27 28 28 28 28 28 28 28 29 29 29 29 30 30 30 29 29 29 29 31 31 31 31 32 32 32 31 31 31 32 32 32 32 32 32 32 32 33 33 33
25 26 26 27 27 27 28 28 28 28 28 28 29 29 29 30 30 30 30 29 29 30 30 31 32 31 31 31 32 32 32 32 33 33 33 33 33 33 33 33 33 33 34 34
25 25 26 27 27 27 27 27 27 27 28 27 28 28 28 29 29 29 29 29 29 30 30 31 31 31 32 32 32 32 33 33 34 34 34 34 34 34 34 34 33 33 33 34
24 24 25 25 25 26 26 25 25 26 27 27 27 27 27 27 28 28 29 29 29 30 30 30 31 31 32 32 32 33 33 33 34 34 34 34 34 33 33 33 33 33 33 34
24 24 23 24 24 25 25 24 24 25 25 25 26 26 26 27 27 28 28 28 28 29 29 30 31 31 32 32 32 32 32 32 33 33 33 33 33 33 32 32 32 33 33 34
25 25 24 23 24 24 24 24 23 23 23 24 24 25 25 26 26 27 27 27 27 27 28 29 30 31 31 32 32 31 31 31 31 31 31 31 31 32 32 32 32 33 33 33
25 25 25 24 24 24 23 23 23 23 23 24 24 24 25 25 25 25 25 25 25 26 26 27 28 28 29 30 30 30 31 31 31 31 31 30 31 31 32 33 33 33 33 33
25 24 24 24 24 24 24 24 24 23 24 24 25 25 25 25 25 25 25 25 25 26 26 26 26 27 28 28 29 29 30 31 31 31 30 30 30 31 31 32 32 32 32 32

GEFSNGP_500_meanwind_270.txt.gz
Wind_Speed
22 24 25 24 23 24 24 24 25 25 25 25 25 26 27 26 25 25 25 25 24 23 22 22 22 22 21 20 20 20 20 19 19 19 19 19 18 18 17 17 16 16 15 15
24 24 25 25 25 25 25 25 26 27 27 27 26 26 27 27 27 26 26 26 25 24 24 24 23 23 23 22 22 22 22 21 21 21 20 20 19 19 18 17 17 17 16 15
25 24 26 26 25 26 25 25 26 27 28 28 28 29 29 27 27 27 26 26 26 26 25 25 25 24 24 23 24 24 23 23 22 22 22 21 20 19 19 18 18 18 18 17
25 25 27 26 26 26 26 26 26 27 27 27 28 29 30 28 27 27 26 26 27 27 26 26 26 25 25 24 24 24 23 23 23 23 23 22 21 21 20 20 20 19 19 19
25 26 27 26 25 26 27 28 27 27 28 28 28 29 29 29 27 27 27 27 27 27 27 27 27 26 26 25 24 24 24 24 24 24 24 24 23 23 22 21 21 20 20 19
25 26 27 26 25 25 26 27 26 26 27 28 29 29 29 28 27 27 27 28 28 27 27 27 27 26 25 26 26 25 25 25 25 25 25 24 24 23 23 23 22 22 22 21
25 26 27 26 26 26 26 26 26 26 26 27 28 28 28 27 28 28 27 27 27 27 26 27 27 26 26 26 26 26 25 25 24 25 25 25 25 25 25 25 24 24 24 23
25 26 27 26 26 27 27 27 26 26 26 27 28 28 27 27 28 28 28 27 26 27 26 26 27 26 26 26 25 25 25 26 26 26 26 26 27 27 26 26 26 25 25 25
26 27 27 27 28 27 27 27 26 27 27 27 27 28 27 27 28 28 28 28 27 27 27 27 27 28 27 26 26 25 25 26 26 27 27 27 27 27 26 26 26 26 26 26
26 27 28 29 29 28 28 28 27 28 27 27 28 27 27 27 28 28 28 28 27 27 27 27 27 28 27 27 26 26 26 26 27 28 28 28 28 27 27 27 27 27 27 27
27 27 29 29 29 29 29 29 29 29 29 29 29 28 28 27 28 28 28 27 27 27 27 27 28 28 27 28 27 27 27 27 27 27 27 27 28 28 28 28 28 29 29 29
28 28 29 29 29 29 29 29 29 30 30 30 30 29 28 27 28 28 28 28 28 28 28 28 28 28 28 29 28 28 28 27 27 27 27 27 27 28 28 28 28 29 29 30
29 29 29 30 30 29 29 29 29 29 29 28 28 28 28 27 28 28 27 28 28 28 28 28 28 28 28 29 29 29 29 29 29 28 28 29 29 28 28 29 28 29 30 31
28 29 30 29 30 30 29 29 29 29 29 28 28 28 27 27 28 28 28 28 28 29 29 29 29 29 29 30 30 30 30 29 30 30 29 30 29 29 30 30 31 30 31 32
29 30 30 30 30 30 31 30 30 30 29 29 28 28 28 27 28 29 29 29 29 30 30 29 30 30 30 31 30 30 30 30 30 30 31 31 31 30 31 31 31 31 31 32
29 29 30 30 30 30 31 31 31 30 30 29 28 28 28 28 29 29 29 30 30 31 31 31 32 31 31 31 31 31 31 31 31 31 31 32 32 32 32 32 31 32 32 32
30 30 30 30 30 30 30 30 30 30 29 28 28 29 29 30 30 30 30 31 31 32 32 33 32 31 32 32 31 31 31 31 31 31 31 31 32 32 32 32 32 32 32 32
30 30 30 30 29 28 28 29 29 29 29 29 29 30 30 30 30 30 31 32 32 33 33 33 32 32 32 32 31 31 31 31 31 31 31 31 32 32 32 33 33 33 34 34
29 30 30 30 29 29 28 29 29 29 29 29 30 30 30 31 31 32 32 32 33 33 32 32 32 32 32 32 31 31 31 32 32 32 32 32 32 32 33 34 34 34 34 35
29 29 29 29 29 29 29 29 29 29 30 30 30 30 31 31 31 32 32 32 32 32 32 32 31 31 32 31 31 31 32 32 32 32 33 32 32 33 33 34 35 35 36 35
28 29 29 30 29 29 29 29 30 30 30 31 31 31 31 31 31 31 31 32 31 32 32 31 32 32 32 32 32 32 32 32 33 33 33 33 34 33 33 33 34 34 34 34
27 28 28 29 29 29 28 29 29 29 29 30 30 30 31 31 30 30 30 30 30 30 31 31 31 31 31 31 31 31 32 33 33 33 33 33 33 33 32 32 33 33 33 32
27 27 27 27 27 27 28 28 28 28 28 29 30 30 31 30 30 30 29 29 30 30 29 30 30 31 30 30 30 30 31 31 31 32 32 33 33 33 33 32 33 33 32 31
27 26 26 26 26 26 27 27 27 28 28 29 29 30 30 29 29 29 30 30 30 29 29 29 29 29 29 30 30 31 31 31 31 32 32 32 32 32 32 32 32 31 31 30
27 27 27 26 26 26 26 26 26 26 27 27 27 27 27 28 28 28 29 29 29 29 29 28 29 30 30 30 31 31 31 31 31 31 31 31 31 32 32 32 31 31 31 31
28 27 27 27 27 27 27 26 26 26 26 26 26 26 26 26 26 26 26 26 27 27 28 28 29 29 29 29 29 29 29 30 30 31 31 31 31 31 31 31 31 31 32 32
27 27 27 27 27 28 27 27 27 27 26 26 26 26 26 26 26 26 25 25 26 26 27 27 27 27 27 28 28 28 29 29 30 30 31 31 31 31 31 31 31 31 32 32

GEFSNGP_500_meanwind_276.txt.gz
Wind_Speed
21 21 22 23 23 23 23 23 24 23 23 22 22 23 23 23 24 24 24 24 23 22 22 22 21 21 21 21 21 21 20 20 20 20 20 19 19 19 19 18 18 17 17 17
21 22 23 24 23 23 24 24 24 24 24 23 24 24 25 25 25 25 25 25 24 24 23 23 23 23 23 22 22 22 21 20 20 21 20 19 20 20 20 20 19 18 18 17
22 22 23 24 23 24 25 25 25 25 25 25 25 25 26 26 25 25 25 25 25 24 24 24 25 24 24 24 23 23 22 22 22 22 22 22 21 21 21 20 20 19 19 18
23 23 24 22 24 25 25 24 24 24 24 25 25 25 26 26 26 26 26 25 25 25 24 23 24 24 24 24 23 23 23 22 22 22 22 23 23 22 21 21 21 20 20 19
25 25 24 22 23 24 25 24 23 24 24 25 25 25 25 25 26 26 26 25 25 25 24 23 24 23 23 23 23 23 23 22 22 22 22 23 22 22 22 21 21 21 21 21
25 25 24 22 23 24 25 25 23 24 24 25 25 25 25 25 26 25 25 25 25 24 24 24 24 24 23 23 22 22 22 22 22 22 22 22 21 22 22 22 22 22 22 22
25 25 24 23 23 24 24 24 23 24 24 24 25 25 25 25 25 25 24 23 23 23 24 24 24 24 23 22 22 22 22 22 22 22 22 22 22 23 23 23 23 24 24 23
25 25 24 24 24 24 23 23 23 24 24 24 24 24 24 24 23 23 23 23 23 23 24 24 24 23 23 22 23 23 23 23 23 23 23 24 24 25 24 25 25 25 25 24
25 25 25 24 24 24 24 24 24 24 24 23 23 23 23 23 23 24 24 24 24 24 24 24 24 23 23 22 22 23 23 23 24 24 25 26 26 26 26 26 26 26 26 26
25 24 25 24 24 24 25 25 25 25 24 23 23 23 24 23 24 24 24 23 24 24 24 24 24 24 24 23 22 23 23 24 24 25 26 27 28 28 28 27 28 28 27 28
25 25 26 25 24 25 25 25 26 26 26 25 25 24 24 23 24 25 24 24 24 24 24 24 24 24 25 24 25 25 25 26 26 26 27 27 28 28 28 28 28 29 29 29
26 26 26 25 25 25 26 26 26 26 27 26 26 26 25 24 25 25 25 25 26 25 24 24 24 25 26 26 26 26 26 26 27 27 27 27 28 29 29 29 30 30 31 30
27 26 26 25 25 25 26 26 25 26 26 26 26 26 26 26 25 25 26 26 26 26 26 26 26 26 26 27 28 27 27 27 27 28 28 29 29 29 30 30 31 31 32 32
27 27 27 26 26 26 25 25 25 25 25 25 25 26 26 26 26 26 26 26 27 28 28 28 28 28 28 29 29 29 29 29 30 30 30 30 30 30 30 30 31 32 33 33
26 26 27 27 27 26 26 26 25 26 25 25 25 26 26 27 27 27 27 27 28 29 29 30 29 29 29 30 30 30 30 30 31 31 31 31 31 31 31 31 31 31 32 33
25 25 26 26 26 27 27 26 25 25 25 26 26 26 27 28 28 28 29 29 30 30 30 30 30 30 31 31 31 30 31 31 31 32 32 32 32 32 32 32 32 32 32 33
25 25 25 25 26 26 27 27 26 25 25 26 26 27 27 27 28 28 30 31 31 31 31 31 31 31 31 32 31 31 31 31 32 32 32 33 33 33 33 33 33 33 33 34
25 25 25 25 25 26 26 26 26 26 26 26 26 26 26 27 27 28 29 30 31 31 31 32 32 32 32 32 32 32 32 32 32 33 33 33 33 33 32 32 32 33 33 34
24 24 25 25 25 25 25 25 26 26 26 27 26 27 28 28 28 29 29 30 30 31 32 32 33 33 33 33 33 33 33 32 33 33 33 33 33 32 33 33 33 34 35 36
23 24 24 25 24 24 25 25 26 25 26 26 27 27 28 28 29 29 30 30 31 31 31 32 32 32 33 33 33 33 32 32 32 32 32 32 32 33 33 33 34 35 36 37
23 23 24 24 24 24 25 25 25 25 25 26 26 27 27 28 28 29 29 29 29 30 31 31 31 31 31 31 31 30 30 30 30 30 30 31 32 32 32 33 33 33 33 34
24 24 24 24 25 25 25 25 25 25 26 26 26 27 27 28 28 28 27 28 28 28 28 29 29 29 29 30 30 30 30 30 31 31 31 31 31 32 32 32 32 32 32 32
25 25 25 25 25 25 25 25 25 25 25 25 26 26 27 27 27 27 27 27 27 27 27 28 29 29 30 30 30 29 30 30 31 31 31 30 30 30 30 30 31 31 31 31
26 26 26 26 26 26 25 24 24 24 24 24 25 25 25 25 25 26 26 26 26 27 27 28 29 29 29 29 30 30 30 30 30 30 30 29 29 29 30 30 30 31 31 32
26 26 26 26 26 25 25 24 23 23 23 24 24 24 24 25 25 25 26 27 27 27 27 28 28 28 29 29 30 30 30 29 29 29 28 29 29 30 30 30 31 31 31 32
26 26 26 26 26 25 25 24 24 23 23 24 24 24 24 25 25 25 26 26 26 27 27 27 27 27 28 28 28 28 28 27 28 28 28 29 29 29 30 30 31 31 31 31
26 26 26 26 26 26 25 25 25 24 25 25 25 25 26 26 26 26 26 26 26 26 26 27 27 27 27 27 26 26 26 26 26 26 27 27 28 29 30 31 31 32 32 31